map of NLV home
Great Circle Mapper logo
NLV - Airport
Location
City:  Nikolaev, Mykolaiv, Ukraine
Name:Nikolaev International Airport
ICAO / IATA:UKON / NLV

Details
Type:Airport (Aerodrome, Airfield)
Use:Public/Civil, International (customs port of entry)
Latitude:4703'28"N (47.057900)
Longitude:3155'11"E (31.919825)
Datum:WGS 1984
Elevation:184 ft (56 m)
Variation:6.74E (WMM2015 magnetic declination)
0.11 annual change
Runways:2
Longest:8438 × 144 ft (2572 × 44 m), paved

Time
Time Zone:UTC+2 (DST+3)
Local Time:

Weather
METAR:UKON 011200Z 00000MPS 9999 SCT033 27/12 Q1019 NOSIG

Related Locations
Nearby:
Farthest:CHT: 11050 mi / 17783 km
Waitangi [Tuuta], Chatham Islands, NZ

Find:

   beyond  
but within

Other Information
Maps:
NOTAMs:
Links:
Sources:

  
flag of Ukraine
flag of Mykolaiv
  

Sectional Chart

Flight Planning
at skyvector.com

Satellite Image

Google Maps Satellite view

 

Copyright © 2004-2015 Karl L. Swartz. All rights reserved.
The Great Circle Mapper name and logo are trademarks of the Great Circle Mapper.
All other trademarks mentioned herein belong to their respective owners.
Please see credits for attibutions and further copyright information.

  Follow gcmap on Facebook Follow gcmap on Twitter Follow gcmap on Google+

hCard Microformat

Geo Microformat